Location: Aix-en-Ergny
(50.5839°N, 1.9996°E)
Time: 14:12:39
(UTC+00:00)

SL-16 R/B - Pass Details

Date: 23 October 2019
Orbit: 840 x 850 km, 71.0° (Epoch: 11 November)

Event Time Altitude Azimuth Distance (km) Brightness Sun altitude
Exits shadow 04:53:12 - 217° (SW) 2,672 4.4 -15.5°
Reaches altitude 10° 04:53:46 10° 218° (SW) 2,459 4.3 -15.5°
Maximum altitude 04:59:24 70° 302° (WNW) 901 2.2 -14.6°
Drops below altitude 10° 05:05:06 10° 26° (NNE) 2,482 5.0 -13.7°
Sets 05:07:35 0° 29° (NNE) 3,422 5.8 -13.3°
